Location: Broletto
(44.6000°N, 10.5833°E)
Time: 02:21:50
(UTC+00:00)

Ariane Rocket - Pass Details

Date: 18 April 2021
Orbit: 760 x 770 km, 98.7° (Epoch: 07 May)

Event Time Altitude Azimuth Distance (km) Brightness Sun altitude
Exits shadow 18:27:18 - 134° (SE) 2,971 5.5 -4.4°
Reaches altitude 10° 18:29:10 10° 126° (SE) 2,291 4.9 -4.7°
Maximum altitude 18:33:33 31° 66° (ENE) 1,316 3.9 -5.4°
Drops below altitude 10° 18:37:58 10° 5° (N) 2,302 5.7 -6.1°
Sets 18:40:29 0° 355° (N) 3,232 6.6 -6.5°
